Keps
Threads by month
- ----- 2025 -----
- February
- January
- ----- 2024 -----
- December
- November
- October
- September
- August
- July
- June
- May
- April
- March
- February
- January
- ----- 2023 -----
- December
- November
- October
- September
- August
- July
- June
- May
- April
- March
- February
- January
- ----- 2022 -----
- December
- November
- October
- September
- August
- July
- June
- May
- April
- March
- February
- January
- ----- 2021 -----
- December
- November
- October
- September
- August
- July
- June
- May
- April
- March
- February
- January
- ----- 2020 -----
- December
- November
- October
- September
- August
- July
- June
- May
- April
- March
- February
- January
- ----- 2019 -----
- December
- November
- October
- September
- August
- July
- June
- May
- April
- March
- February
- January
- ----- 2018 -----
- December
- November
- October
- September
- August
- July
- June
- May
- April
- March
- February
- January
- ----- 2017 -----
- December
- November
- October
- September
- August
- July
- June
- May
- April
- March
- February
- January
- ----- 2016 -----
- December
- November
- October
- September
- August
- July
- June
- May
- April
- March
- February
- January
- ----- 2015 -----
- December
- November
- October
- September
- August
- July
- June
- May
- April
- March
- February
- January
- ----- 2014 -----
- December
- November
- October
- September
- August
- July
- June
- May
- April
- March
- February
- January
- ----- 2013 -----
- December
- November
- October
- September
- August
- July
- June
- May
- April
- March
- February
- January
- ----- 2012 -----
- December
- November
- October
- September
- August
- July
- June
- May
- April
- March
- February
- January
- ----- 2011 -----
- December
- November
- October
- September
- August
- July
- June
- May
- April
- March
- February
- January
- ----- 2010 -----
- December
- November
- October
- September
- August
- July
- June
- May
- April
- March
- February
- January
- ----- 2009 -----
- December
- November
- October
- September
- August
- July
- June
- May
- April
- March
- February
- January
- ----- 2008 -----
- December
- November
- October
- September
- August
- July
- June
- May
- April
- March
- February
- January
- ----- 2007 -----
- December
- November
- October
- September
- August
- July
- June
- May
- April
- March
- February
- January
- ----- 2006 -----
- December
- November
- October
- September
March 2017
- 1 participants
- 7 discussions
SB KEPS @ AMSAT $ORB17089.N
2Line Orbital Elements 17089.AMSAT
HR AMSAT ORBITAL ELEMENTS FOR AMATEUR SATELLITES IN NASA FORMAT
FROM WA5QGD FORT WORTH,TX March 30, 2017
BID: ORB17089.N
DECODE 2-LINE ELSETS WITH THE FOLLOWING KEY:
1 AAAAAU 00 0 0 BBBBB.BBBBBBBB .CCCCCCCC 00000-0 00000-0 0 DDDZ
2 AAAAA EEE.EEEE FFF.FFFF GGGGGGG HHH.HHHH III.IIII JJ.JJJJJJJJKKKKKZ
KEY: A-CATALOGNUM B-EPOCHTIME C-DECAY D-ELSETNUM E-INCLINATION F-RAAN
G-ECCENTRICITY H-ARGPERIGEE I-MNANOM J-MNMOTION K-ORBITNUM Z-CHECKSUM
TO ALL RADIO AMATEURS BT
AO-07
1 07530U 74089B 17088.91346207 -.00000049 00000-0 -27598-4 0 9999
2 07530 101.6218 059.1886 0012384 114.9707 308.3054 12.53626070938690
UO-11
1 14781U 84021B 17088.88176466 .00000194 00000-0 30266-4 0 9991
2 14781 097.7078 137.4754 0010045 098.8107 261.4245 14.82873551757596
LO-19
1 20442U 90005G 17088.81658097 .00000043 00000-0 31920-4 0 9990
2 20442 098.5706 026.1606 0012351 027.4012 332.7821 14.32853489420254
HUBBLE
1 20580U 90037B 17088.44297633 .00000887 00000-0 43953-4 0 9997
2 20580 028.4692 174.4341 0002910 039.5979 062.4411 15.08715220278147
MET-2/21
1 22782U 93055A 17088.91923010 .00000017 00000-0 23807-5 0 9995
2 22782 082.5460 086.4927 0021183 295.0633 126.3623 13.83797612190467
AO-27
1 22825U 93061C 17088.84666388 .00000023 00000-0 26646-4 0 9994
2 22825 098.8034 053.4922 0007984 196.1249 163.9680 14.29990322225797
IO-26
1 22826U 93061D 17088.47619555 .00000030 00000-0 28953-4 0 9999
2 22826 098.7976 053.2089 0008653 187.8971 172.2076 14.30318380226183
FO-29
1 24278U 96046B 17088.67318232 -.00000028 00000-0 71175-5 0 9991
2 24278 098.5754 342.4712 0350331 183.2266 176.6612 13.53074862018129
NOAA-15
1 25338U 98030A 17088.91593454 .00000034 00000-0 32997-4 0 9996
2 25338 098.7850 099.6585 0011681 078.7612 281.4880 14.25783261981446
GO-32
1 25397U 98043D 17088.84506986 .00000007 00000-0 22038-4 0 9996
2 25397 098.6031 032.8850 0000759 167.9277 192.1920 14.23618021972506
ISS
1 25544U 98067A 17088.88997985 .00002977 00000-0 51928-4 0 9991
2 25544 051.6423 073.5618 0007382 353.5324 091.3573 15.54284560049425
NO-44
1 26931U 01043C 17088.89004358 -.00000012 00000-0 27406-4 0 9997
2 26931 067.0504 295.7934 0007568 277.0266 082.9974 14.30452809808933
SO-50
1 27607U 02058C 17088.89733758 .00000147 00000-0 41980-4 0 9999
2 27607 064.5572 007.8525 0034132 134.9377 225.4503 14.75299985767412
CO-55
1 27844U 03031E 17088.91842733 .00000075 00000-0 53554-4 0 9991
2 27844 098.6919 099.0720 0009118 210.7961 149.2682 14.22024249713015
CO-57
1 27848U 03031J 17088.96714113 .00000059 00000-0 46983-4 0 9990
2 27848 098.7014 099.3446 0008863 220.5117 139.5402 14.21640540712919
RS-22
1 27939U 03042A 17088.97265264 .00000228 00000-0 49518-4 0 9997
2 27939 097.9260 236.3244 0014309 115.6223 355.3436 14.66539097721566
NOAA-18
1 28654U 05018A 17088.92197473 .00000027 00000-0 40340-4 0 9999
2 28654 099.1889 109.1752 0013341 295.5643 064.4148 14.12330511610973
CO-58
1 28895U 05043F 17088.92588277 .00000267 00000-0 60334-4 0 9991
2 28895 097.8553 254.9121 0017605 038.5804 321.6653 14.63363328608663
Falconsat-3
1 30776U 07006E 17088.46537172 .00006041 00000-0 19378-3 0 9997
2 30776 035.4354 212.1965 0003639 310.4913 049.5495 15.31732007556020
CO-65
1 32785U 08021C 17088.48173211 .00000521 00000-0 62634-4 0 9990
2 32785 097.5742 116.3654 0014680 074.8270 285.4570 14.87828943482979
AAUSAT2
1 32788U 08021F 17088.65652176 .00001426 00000-0 13956-3 0 9991
2 32788 097.5682 127.6049 0012996 043.2054 317.0184 14.93752434483800
DO-64
1 32789U 08021G 17088.69183373 .00003501 00000-0 25345-3 0 9995
2 32789 097.5685 148.5773 0013134 021.0264 339.1500 15.04571207484811
CO-66
1 32791U 08021J 17088.33854439 .00000696 00000-0 77270-4 0 9994
2 32791 097.5719 120.3432 0014870 062.6218 297.6512 14.90136959483174
RS-30
1 32953U 08025A 17088.92533194 .00000008 00000-0 -17198-4 0 9996
2 32953 082.4991 288.9501 0019703 098.2556 262.0759 12.43075483401570
PRISM
1 33493U 09002B 17088.88308109 .00002701 00000-0 24891-3 0 9991
2 33493 098.1790 327.9248 0015077 351.0567 009.0378 14.95540319443920
NOAA-19
1 33591U 09005A 17088.91494044 .00000114 00000-0 86860-4 0 9992
2 33591 099.0840 054.6526 0014694 132.1855 228.0566 14.12165650419206
TISAT-1
1 36799U 10035E 17088.91929269 .00000929 00000-0 10161-3 0 9996
2 36799 098.0506 210.0995 0011598 222.1863 137.8463 14.90287118363777
JUGNU
1 37839U 11058B 17088.46334106 .00000334 00000-0 36469-4 0 9998
2 37839 019.9605 213.8802 0019083 024.7920 040.6376 14.12576382282413
SRMSAT
1 37841U 11058D 17087.48627677 .00000333 00000-0 37836-4 0 9998
2 37841 019.9718 259.8280 0011801 275.0832 117.6598 14.10568641281781
AO-71
1 37854U 11061E 17088.81589863 .00003123 00000-0 17459-3 0 9996
2 37854 101.7102 282.0453 0168603 309.8262 048.8213 15.03760251294550
HRBE
1 37855U 11061F 17088.83741346 .00002286 00000-0 12793-3 0 9990
2 37855 101.7234 279.9340 0181500 315.8340 042.8498 15.02718544294402
ALMASAT-1
1 38078U 12006B 17088.94665004 .00047340 39634-5 56764-3 0 9992
2 38078 069.4406 345.0755 0319716 047.2573 315.5024 15.18401371272744
HORYU-2
1 38340U 12025D 17088.93810222 .00000449 00000-0 74417-4 0 9993
2 38340 098.3763 090.0729 0011645 177.5080 182.6188 14.75282997251194
RS-40
1 38735U 12041C 17088.90052636 .00000030 00000-0 14532-3 0 9990
2 38735 082.4808 013.6229 0016066 198.1263 161.9246 12.42573142211824
BEESAT-3
1 39134U 13015E 17088.87867116 .00003531 00000-0 18310-3 0 9996
2 39134 064.8676 122.3851 0032174 290.0541 069.7123 15.17463762217065
BEESAT-2
1 39136U 13015G 17088.89503188 .00002240 00000-0 12922-3 0 9995
2 39136 064.8692 131.9384 0029318 295.0275 064.7806 15.14816829216871
ZACUBE-1
1 39417U 13066B 17088.89142898 .00000489 00000-0 68346-4 0 9995
2 39417 097.6397 134.9399 0059859 167.9445 192.3217 14.80650771181045
TRITON-1
1 39427U 13066M 17088.95618765 .00000370 00000-0 67710-4 0 9997
2 39427 097.6432 109.6043 0113124 242.1810 116.7894 14.67408428179233
GOMX-1
1 39430U 13066Q 17088.95185467 .00000392 00000-0 81031-4 0 9995
2 39430 097.6649 094.0335 0150602 293.5199 065.0239 14.58819893178195
LO-74
1 39440U 13066AA 17088.89713708 .00000403 00000-0 63521-4 0 9991
2 39440 097.6378 124.7520 0080546 196.5593 163.2984 14.75394191179200
AO-73
1 39444U 13066AE 17088.90994633 .00000607 00000-0 81891-4 0 9991
2 39444 097.6411 135.9105 0059124 164.9363 195.3629 14.81369309179287
SPROUT
1 39770U 14029E 17088.85039047 .00002158 00000-0 25258-3 0 9993
2 39770 097.8699 189.0281 0008687 214.9638 145.1006 14.86071084154351
DUCHIFAT-1
1 40021U 14033M 17088.91239398 .00000982 00000-0 10822-3 0 9991
2 40021 097.9219 001.9536 0012455 196.6038 163.4773 14.89782632150793
NANOSATCBR1
1 40024U 14033Q 17088.74455584 .00000810 00000-0 91737-4 0 9997
2 40024 097.9184 000.7954 0011715 197.6003 162.4809 14.89122875150728
EO-79
1 40025U 14033R 17088.74927060 .00000675 00000-0 78993-4 0 9999
2 40025 097.9169 359.9566 0011870 200.4252 159.6491 14.88344535150678
DTUSAT-2
1 40030U 14033W 17088.73444564 .00000640 00000-0 75888-4 0 9999
2 40030 097.9139 359.1353 0011477 194.0428 166.0470 14.87969490150630
EO-80
1 40032U 14033Y 17088.90767570 .00000626 00000-0 74441-4 0 9993
2 40032 097.9144 359.3151 0011457 194.0640 166.0258 14.87903628150130
ANTELSAT
1 40034U 14033AA 17088.63827754 .00000450 00000-0 74990-4 0 9990
2 40034 097.8704 334.9877 0058779 187.3959 172.6389 14.73638988148676
VELOX-1
1 40057U 14034E 17088.83697232 .00001040 00000-0 15494-3 0 9993
2 40057 098.1855 187.8851 0009560 315.3873 044.6536 14.77043836148040
